Location: Unspecified
(0.0000°N, 0.0000°E)
Time: 04:16:32
(UTC+00:00)

CANX-2 - Pass Details

Date: 19 May 2026
Orbit: 542 x 558 km, 97.9° (Epoch: 11 June)

Event Time Altitude Azimuth Distance (km) Brightness Sun altitude
Rises 03:21:51 0° 35° (NE) 2,686 ? -36.0°
Reaches altitude 10° 03:24:21 10° 52° (NE) 1,798 ? -35.4°
Enters shadow 03:25:16 15° 63° (ENE) 1,531 ? -35.2°
